Time,TemperatureF,DewpointF,PressureIn,WindDirection,WindDirectionDegrees,WindSpeedMPH,WindSpeedGustMPH,Humidity,HourlyPrecipIn,Conditions,Clouds,dailyrainin,SoftwareType,DateUTC
2013-03-28 00:00:00,36.7,27.5,30.13,SW,225,4.5,6.1,69,0.00,BKN,,0.08,WeatherDisplay:10.37,2013-03-28 04:00:00,
2013-03-28 00:01:00,36.7,27.5,30.13,West,270,7.9,10.4,69,0.00,RA,,0.00,WeatherDisplay:10.37,2013-03-28 04:01:00,
2013-03-28 00:06:00,36.5,27.3,30.13,West,270,2.3,4.6,69,0.00,RA,,0.00,WeatherDisplay:10.37,2013-03-28 04:06:00,
2013-03-28 00:07:00,36.5,27.3,30.13,WSW,248,4.9,6.1,69,0.00,RA,,0.00,WeatherDisplay:10.37,2013-03-28 04:07:00,
2013-03-28 00:12:00,36.5,27.3,30.13,WSW,248,6.6,8.7,69,0.00,RA,,0.00,WeatherDisplay:10.37,2013-03-28 04:12:00,
2013-03-28 00:17:00,36.5,27.6,30.13,SW,225,5.1,6.1,70,0.00,BKN,,0.00,WeatherDisplay:10.37,2013-03-28 04:17:00,
2013-03-28 00:22:00,36.5,27.6,30.13,WNW,292,7.3,12.9,70,0.00,BKN,,0.00,WeatherDisplay:10.37,2013-03-28 04:22:00,
2013-03-28 00:28:00,36.3,27.4,30.12,SW,225,5.2,7.0,70,0.00,BKN,,0.00,WeatherDisplay:10.37,2013-03-28 04:28:00,
2013-03-28 00:33:00,36.3,27.4,30.12,West,270,5.9,9.2,70,0.00,BKN,,0.00,WeatherDisplay:10.37,2013-03-28 04:33:00,
2013-03-28 00:38:00,36.3,27.4,30.12,WSW,248,8.0,10.4,70,0.00,BKN,,0.00,WeatherDisplay:10.37,2013-03-28 04:38:00,
2013-03-28 00:43:00,36.3,27.8,30.12,NW,315,5.7,10.4,71,0.00,BKN,,0.00,WeatherDisplay:10.37,2013-03-28 04:43:00,
2013-03-28 00:48:00,36.3,27.4,30.12,West,270,7.5,9.5,70,0.00,BKN,,0.00,WeatherDisplay:10.37,2013-03-28 04:48:00,
2013-03-28 00:53:00,36.3,27.4,30.13,West,270,7.2,11.5,70,0.00,BKN,,0.00,WeatherDisplay:10.37,2013-03-28 04:53:00,
2013-03-28 00:58:00,36.3,27.8,30.13,WSW,248,7.2,9.2,71,0.00,BKN,,0.00,WeatherDisplay:10.37,2013-03-28 04:58:00,
2013-03-28 01:03:00,36.1,27.6,30.12,WSW,248,5.1,7.0,71,0.00,BKN,,0.00,WeatherDisplay:10.37,2013-03-28 05:03:00,
2013-03-28 01:08:00,36.1,27.6,30.12,WSW,248,8.4,11.5,71,0.00,BKN,,0.00,WeatherDisplay:10.37,2013-03-28 05:08:00,
2013-03-28 01:13:00,36.0,27.8,30.12,WNW,292,3.6,4.6,72,0.00,BKN,,0.00,WeatherDisplay:10.37,2013-03-28 05:13:00,
2013-03-28 01:18:00,35.8,27.7,30.12,West,270,7.6,11.2,72,0.00,BKN,,0.00,WeatherDisplay:10.37,2013-03-28 05:18:00,
2013-03-28 01:24:00,35.8,27.7,30.12,WNW,292,5.4,7.0,72,0.00,BKN,,0.00,WeatherDisplay:10.37,2013-03-28 05:24:00,
2013-03-28 01:29:00,35.6,27.5,30.12,West,270,6.1,9.2,72,0.00,BKN,,0.00,WeatherDisplay:10.37,2013-03-28 05:29:00,
2013-03-28 01:34:00,35.6,27.5,30.12,WSW,248,8.7,15.0,72,0.00,BKN,,0.00,WeatherDisplay:10.37,2013-03-28 05:34:00,
2013-03-28 01:40:00,35.6,27.5,30.12,SW,225,9.2,11.2,72,0.00,BKN,,0.00,WeatherDisplay:10.37,2013-03-28 05:40:00,
2013-03-28 01:45:00,35.6,27.5,30.12,West,270,3.8,9.2,72,0.00,BKN,,0.00,WeatherDisplay:10.37,2013-03-28 05:45:00,
2013-03-28 01:50:00,35.6,27.8,30.12,WNW,292,4.5,6.1,73,0.00,BKN,,0.00,WeatherDisplay:10.37,2013-03-28 05:50:00,
2013-03-28 01:55:00,35.6,27.8,30.12,WSW,248,4.5,10.4,73,0.00,BKN,,0.00,WeatherDisplay:10.37,2013-03-28 05:55:00,
2013-03-28 02:00:00,35.6,27.8,30.12,SSE,158,5.7,7.0,73,0.00,BKN,,0.00,WeatherDisplay:10.37,2013-03-28 06:00:00,
2013-03-28 02:05:00,35.4,27.9,30.12,WSW,248,8.4,16.3,74,0.00,BKN,,0.00,WeatherDisplay:10.37,2013-03-28 06:05:00,
2013-03-28 02:10:00,35.4,27.9,30.12,NW,315,5.1,10.4,74,0.00,BKN,,0.00,WeatherDisplay:10.37,2013-03-28 06:10:00,
2013-03-28 02:15:00,35.4,27.9,30.12,SW,225,10.2,11.2,74,0.00,BKN,,0.00,WeatherDisplay:10.37,2013-03-28 06:15:00,
2013-03-28 02:20:00,35.2,28.1,30.12,SW,225,4.4,13.8,75,0.00,BKN,,0.00,WeatherDisplay:10.37,2013-03-28 06:20:00,
2013-03-28 02:25:00,35.1,28.0,30.12,WSW,248,5.0,8.7,75,0.00,BKN,,0.00,WeatherDisplay:10.37,2013-03-28 06:25:00,
2013-03-28 02:30:00,35.1,28.3,30.12,NW,315,3.8,5.8,76,0.00,BKN,,0.00,WeatherDisplay:10.37,2013-03-28 06:30:00,
2013-03-28 02:35:00,35.1,28.3,30.12,WSW,248,3.9,5.3,76,0.00,BKN,,0.00,WeatherDisplay:10.37,2013-03-28 06:35:00,
2013-03-28 02:40:00,35.1,28.0,30.12,WSW,248,4.9,5.8,75,0.00,BKN,,0.00,WeatherDisplay:10.37,2013-03-28 06:40:00,
2013-03-28 02:45:00,35.1,27.6,30.12,West,270,4.5,8.1,74,0.00,BKN,,0.00,WeatherDisplay:10.37,2013-03-28 06:45:00,
2013-03-28 02:50:00,35.1,28.0,30.11,NW,315,4.1,6.9,75,0.00,BKN,,0.00,WeatherDisplay:10.37,2013-03-28 06:50:00,
2013-03-28 02:55:00,35.1,28.0,30.11,WSW,248,3.7,6.9,75,0.00,BKN,,0.00,WeatherDisplay:10.37,2013-03-28 06:55:00,
2013-03-28 03:00:00,35.1,28.0,30.11,SW,225,9.8,12.1,75,0.00,BKN,,0.00,WeatherDisplay:10.37,2013-03-28 07:00:00,
2013-03-28 03:05:00,35.1,28.3,30.11,WSW,248,3.1,10.4,76,0.00,BKN,,0.00,WeatherDisplay:10.37,2013-03-28 07:05:00,
2013-03-28 03:10:00,34.9,28.7,30.11,West,270,3.3,7.8,78,0.00,BKN,,0.00,WeatherDisplay:10.37,2013-03-28 07:10:00,
2013-03-28 03:15:00,34.7,28.5,30.11,WSW,248,6.6,7.8,78,0.00,BKN,,0.00,WeatherDisplay:10.37,2013-03-28 07:15:00,
2013-03-28 03:20:00,34.7,28.5,30.11,SW,225,9.4,12.9,78,0.00,BKN,,0.00,WeatherDisplay:10.37,2013-03-28 07:20:00,
2013-03-28 03:25:00,34.7,28.5,30.11,WNW,292,7.3,11.2,78,0.00,BKN,,0.00,WeatherDisplay:10.37,2013-03-28 07:25:00,
2013-03-28 03:30:00,34.7,28.5,30.11,West,270,4.6,6.1,78,0.00,BKN,,0.00,WeatherDisplay:10.37,2013-03-28 07:30:00,
2013-03-28 03:35:00,34.7,28.2,30.11,West,270,6.3,8.1,77,0.00,BKN,,0.00,WeatherDisplay:10.37,2013-03-28 07:35:00,
2013-03-28 03:40:00,34.7,27.9,30.11,WSW,248,7.1,9.5,76,0.00,BKN,,0.00,WeatherDisplay:10.37,2013-03-28 07:40:00,
2013-03-28 03:45:00,34.7,28.2,30.11,West,270,6.1,9.2,77,0.00,BKN,,0.00,WeatherDisplay:10.37,2013-03-28 07:45:00,
2013-03-28 03:50:00,34.7,27.9,30.11,WSW,258,6.0,8.0,76,0.00,BKN,BKN,0.00,WeatherDisplay:10.37,2013-03-28 07:50:00,
2013-03-28 03:55:00,34.7,27.9,30.10,WSW,238,7.0,14.0,76,0.00,BKN,BKN,0.00,WeatherDisplay:10.37,2013-03-28 07:55:00,
2013-03-28 04:00:00,34.7,27.9,30.10,WNW,292,1.6,5.8,76,0.00,BKN,,0.00,WeatherDisplay:10.37,2013-03-28 08:00:00,
2013-03-28 04:05:00,34.7,28.0,30.10,WNW,288,8.0,12.0,76,0.00,BKN,BKN,0.00,WeatherDisplay:10.37,2013-03-28 08:05:00,
2013-03-28 04:10:00,34.9,28.4,30.10,West,270,3.0,10.0,77,0.00,BKN,BKN,0.00,WeatherDisplay:10.37,2013-03-28 08:10:00,
2013-03-28 04:15:00,34.9,28.4,30.11,SSW,202,8.6,16.3,77,0.00,BKN,,0.00,WeatherDisplay:10.37,2013-03-28 08:15:00,
2013-03-28 04:20:00,34.9,28.4,30.11,West,278,6.0,16.0,77,0.00,BKN,BKN,0.00,WeatherDisplay:10.37,2013-03-28 08:20:00,
2013-03-28 04:25:00,34.7,28.2,30.11,WNW,285,7.0,10.0,77,0.00,BKN,BKN,0.00,WeatherDisplay:10.37,2013-03-28 08:25:00,
2013-03-28 04:30:00,34.7,28.2,30.10,SSW,202,6.4,9.5,77,0.00,BKN,,0.00,WeatherDisplay:10.37,2013-03-28 08:30:00,
2013-03-28 04:35:00,34.7,28.2,30.10,WSW,258,5.0,8.0,77,0.00,BKN,BKN,0.00,WeatherDisplay:10.37,2013-03-28 08:35:00,
2013-03-28 04:40:00,34.7,28.5,30.11,West,267,3.0,8.0,78,0.00,BKN,BKN,0.00,WeatherDisplay:10.37,2013-03-28 08:40:00,
2013-03-28 04:45:00,34.5,28.3,30.11,WNW,292,6.0,9.2,78,0.00,BKN,,0.00,WeatherDisplay:10.37,2013-03-28 08:45:00,
2013-03-28 04:50:00,34.5,28.3,30.11,West,271,5.0,9.0,78,0.00,BKN,BKN,0.00,WeatherDisplay:10.37,2013-03-28 08:50:00,
2013-03-28 04:55:00,34.5,28.3,30.10,West,271,7.0,15.0,78,0.00,BKN,BKN,0.00,WeatherDisplay:10.37,2013-03-28 08:55:00,
2013-03-28 05:00:00,34.5,28.3,30.10,SW,225,5.5,8.1,78,0.00,BKN,,0.00,WeatherDisplay:10.37,2013-03-28 09:00:00,
2013-03-28 05:05:00,34.5,28.3,30.11,West,267,5.0,10.0,78,0.00,BKN,BKN,0.00,WeatherDisplay:10.37,2013-03-28 09:05:00,
2013-03-28 05:10:00,34.5,28.3,30.11,West,278,3.0,15.0,78,0.00,BKN,BKN,0.00,WeatherDisplay:10.37,2013-03-28 09:10:00,
2013-03-28 05:15:00,34.5,28.3,30.11,WSW,248,4.4,7.0,78,0.00,BKN,,0.00,WeatherDisplay:10.37,2013-03-28 09:15:00,
2013-03-28 05:20:00,34.3,28.2,30.11,WSW,237,6.0,10.0,78,0.00,BKN,BKN,0.00,WeatherDisplay:10.37,2013-03-28 09:20:00,
2013-03-28 05:25:00,34.3,28.2,30.11,WSW,245,6.0,13.0,78,0.00,BKN,BKN,0.00,WeatherDisplay:10.37,2013-03-28 09:25:00,
2013-03-28 05:30:00,34.3,28.2,30.11,NNW,338,4.7,7.0,78,0.00,BKN,,0.00,WeatherDisplay:10.37,2013-03-28 09:30:00,
2013-03-28 05:35:00,34.3,28.2,30.11,NW,315,3.3,5.8,78,0.00,BKN,,0.00,WeatherDisplay:10.37,2013-03-28 09:35:00,
2013-03-28 05:40:00,34.3,28.2,30.11,West,270,4.6,7.0,78,0.00,BKN,,0.00,WeatherDisplay:10.37,2013-03-28 09:40:00,
2013-03-28 05:45:00,34.3,28.2,30.11,West,270,5.5,9.2,78,0.00,BKN,,0.00,WeatherDisplay:10.37,2013-03-28 09:45:00,
2013-03-28 05:50:00,34.3,28.2,30.11,WSW,248,1.6,8.1,78,0.00,BKN,,0.00,WeatherDisplay:10.37,2013-03-28 09:50:00,
2013-03-28 05:55:00,34.3,28.2,30.11,WSW,242,5.0,10.0,78,0.00,BKN,BKN,0.00,WeatherDisplay:10.37,2013-03-28 09:55:00,
2013-03-28 06:00:00,34.3,28.2,30.11,WSW,248,6.1,7.8,78,0.00,BKN,,0.00,WeatherDisplay:10.37,2013-03-28 10:00:00,
2013-03-28 06:05:00,34.3,28.2,30.11,WSW,248,8.1,10.4,78,0.00,BKN,,0.00,WeatherDisplay:10.37,2013-03-28 10:05:00,
2013-03-28 06:10:00,34.3,27.8,30.11,WSW,248,4.0,9.2,77,0.00,BKN,,0.00,WeatherDisplay:10.37,2013-03-28 10:10:00,
2013-03-28 06:15:00,34.3,27.8,30.12,West,270,3.9,4.6,77,0.00,BKN,,0.00,WeatherDisplay:10.37,2013-03-28 10:15:00,
2013-03-28 06:20:00,34.3,27.8,30.12,SSW,202,4.0,5.8,77,0.00,BKN,,0.00,WeatherDisplay:10.37,2013-03-28 10:20:00,
2013-03-28 06:25:00,34.3,27.8,30.12,WSW,248,2.9,5.8,77,0.00,BKN,,0.00,WeatherDisplay:10.37,2013-03-28 10:25:00,
2013-03-28 06:30:00,34.3,27.8,30.12,WSW,248,1.0,8.1,77,0.00,BKN,,0.00,WeatherDisplay:10.37,2013-03-28 10:30:00,
2013-03-28 06:35:00,34.2,27.7,30.12,NW,315,6.1,8.1,77,0.00,OVC,,0.00,WeatherDisplay:10.37,2013-03-28 10:35:00,
2013-03-28 06:40:00,34.2,27.7,30.13,West,270,4.0,6.9,77,0.00,OVC,,0.00,WeatherDisplay:10.37,2013-03-28 10:40:00,
2013-03-28 06:45:00,34.2,28.1,30.13,WSW,248,5.0,6.1,78,0.00,OVC,,0.00,WeatherDisplay:10.37,2013-03-28 10:45:00,
2013-03-28 06:50:00,34.2,28.1,30.13,SW,225,4.8,6.1,78,0.00,OVC,,0.00,WeatherDisplay:10.37,2013-03-28 10:50:00,
2013-03-28 06:55:00,34.2,27.7,30.13,West,270,3.3,5.8,77,0.00,OVC,,0.00,WeatherDisplay:10.37,2013-03-28 10:55:00,
2013-03-28 07:00:00,34.2,27.7,30.13,WSW,248,5.6,7.0,77,0.00,OVC,,0.00,WeatherDisplay:10.37,2013-03-28 11:00:00,
2013-03-28 07:05:00,34.2,27.7,30.13,West,270,5.0,7.8,77,0.00,-RA,,0.00,WeatherDisplay:10.37,2013-03-28 11:05:00,
2013-03-28 07:10:00,34.2,27.7,30.13,West,270,2.4,5.8,77,0.00,-RA,,0.00,WeatherDisplay:10.37,2013-03-28 11:10:00,
2013-03-28 07:15:00,34.2,27.7,30.14,West,270,4.7,7.0,77,0.00,-RA,,0.00,WeatherDisplay:10.37,2013-03-28 11:15:00,
2013-03-28 07:20:00,34.2,27.7,30.14,West,270,2.7,4.6,77,0.00,-RA,,0.00,WeatherDisplay:10.37,2013-03-28 11:20:00,
2013-03-28 07:25:00,34.2,27.7,30.14,West,270,8.0,9.2,77,0.00,-RA,,0.00,WeatherDisplay:10.37,2013-03-28 11:25:00,
2013-03-28 07:30:00,34.2,27.7,30.14,West,270,3.9,4.6,77,0.00,-RA,,0.00,WeatherDisplay:10.37,2013-03-28 11:30:00,
2013-03-28 07:35:00,34.2,27.7,30.14,SW,225,1.7,3.5,77,0.00,-SN,,0.00,WeatherDisplay:10.37,2013-03-28 11:35:00,
2013-03-28 07:40:00,34.2,27.7,30.14,WSW,248,2.7,4.6,77,0.00,-SN,,0.00,WeatherDisplay:10.37,2013-03-28 11:40:00,
2013-03-28 07:45:00,34.2,27.7,30.14,NNW,338,2.7,5.8,77,0.00,-SN,,0.00,WeatherDisplay:10.37,2013-03-28 11:45:00,
2013-03-28 07:50:00,34.2,27.7,30.15,SW,225,4.6,9.2,77,0.00,-SN,,0.00,WeatherDisplay:10.37,2013-03-28 11:50:00,
2013-03-28 07:55:00,34.2,27.7,30.15,SW,225,2.9,3.6,77,0.00,-SN,,0.00,WeatherDisplay:10.37,2013-03-28 11:55:00,
2013-03-28 08:00:00,34.2,28.4,30.15,West,270,5.1,5.8,79,0.00,-SN,,0.00,WeatherDisplay:10.37,2013-03-28 12:00:00,
2013-03-28 08:05:00,34.2,28.7,30.15,NW,315,3.3,5.8,80,0.00,-SN,,0.00,WeatherDisplay:10.37,2013-03-28 12:05:00,
2013-03-28 08:10:00,34.0,29.1,30.15,NW,315,2.9,8.1,82,0.00,-SN,,0.00,WeatherDisplay:10.37,2013-03-28 12:10:00,
2013-03-28 08:15:00,33.8,28.9,30.16,SW,225,4.3,5.8,82,0.00,-SN,,0.00,WeatherDisplay:10.37,2013-03-28 12:15:00,
2013-03-28 08:20:00,33.8,29.2,30.16,SW,225,4.5,6.1,83,0.00,-SN,,0.00,WeatherDisplay:10.37,2013-03-28 12:20:00,
2013-03-28 08:25:00,33.8,29.2,30.16,WSW,248,4.7,5.8,83,0.00,-SN,,0.00,WeatherDisplay:10.37,2013-03-28 12:25:00,
2013-03-28 08:30:00,33.8,29.2,30.16,West,270,3.7,5.8,83,0.00,-SN,,0.00,WeatherDisplay:10.37,2013-03-28 12:30:00,
2013-03-28 08:35:00,34.0,29.4,30.16,West,270,2.8,4.6,83,0.00,-SN,,0.00,WeatherDisplay:10.37,2013-03-28 12:35:00,
2013-03-28 08:40:00,34.2,29.3,30.16,West,270,3.5,5.8,82,0.00,-SN,,0.00,WeatherDisplay:10.37,2013-03-28 12:40:00,
2013-03-28 08:45:00,34.3,29.4,30.16,West,270,3.0,4.6,82,0.00,-SN,,0.00,WeatherDisplay:10.37,2013-03-28 12:45:00,
2013-03-28 08:50:00,34.5,29.6,30.16,WNW,292,3.1,5.8,82,0.00,-SN,,0.00,WeatherDisplay:10.37,2013-03-28 12:50:00,
2013-03-28 08:55:00,34.7,30.1,30.16,SW,225,2.8,4.6,83,0.00,-SN,,0.00,WeatherDisplay:10.37,2013-03-28 12:55:00,
2013-03-28 09:00:00,34.5,29.6,30.16,WSW,248,8.4,9.5,82,0.00,-SN,,0.00,WeatherDisplay:10.37,2013-03-28 13:00:00,
2013-03-28 09:05:00,34.5,29.9,30.16,WSW,248,4.0,5.8,83,0.00,-SN,,0.00,WeatherDisplay:10.37,2013-03-28 13:05:00,
2013-03-28 09:10:00,34.3,30.0,30.16,West,270,3.8,4.6,84,0.00,-SN,,0.00,WeatherDisplay:10.37,2013-03-28 13:10:00,
2013-03-28 09:15:00,34.3,30.3,30.17,WSW,248,3.9,5.8,85,0.00,-SN,,0.00,WeatherDisplay:10.37,2013-03-28 13:15:00,
2013-03-28 09:20:00,34.3,30.3,30.17,West,270,3.8,5.8,85,0.00,-SN,,0.00,WeatherDisplay:10.37,2013-03-28 13:20:00,
2013-03-28 09:25:00,34.3,30.3,30.17,SW,225,6.7,9.5,85,0.00,-SN,,0.00,WeatherDisplay:10.37,2013-03-28 13:25:00,
2013-03-28 09:30:00,34.3,30.5,30.17,WNW,292,4.2,6.1,86,0.00,-SN,,0.00,WeatherDisplay:10.37,2013-03-28 13:30:00,
2013-03-28 09:35:00,34.3,30.8,30.17,WNW,292,5.4,8.1,87,0.00,-SN,,0.00,WeatherDisplay:10.37,2013-03-28 13:35:00,
2013-03-28 09:40:00,34.5,31.3,30.17,WNW,292,4.3,5.8,88,0.00,-SN,,0.00,WeatherDisplay:10.37,2013-03-28 13:40:00,
2013-03-28 09:45:00,34.3,30.8,30.17,NW,315,5.3,7.0,87,0.00,-SN,,0.00,WeatherDisplay:10.37,2013-03-28 13:45:00,
2013-03-28 09:50:00,34.5,31.3,30.18,West,270,3.2,5.8,88,0.00,-SN,,0.00,WeatherDisplay:10.37,2013-03-28 13:50:00,
2013-03-28 09:55:00,34.5,31.0,30.18,West,270,8.0,10.4,87,0.00,-SN,,0.00,WeatherDisplay:10.37,2013-03-28 13:55:00,
2013-03-28 10:00:00,34.5,31.0,30.18,West,270,4.2,6.1,87,0.00,-SN,,0.00,WeatherDisplay:10.37,2013-03-28 14:00:00,
2013-03-28 10:05:00,34.7,31.2,30.18,WNW,292,4.2,5.8,87,0.00,-SN,,0.00,WeatherDisplay:10.37,2013-03-28 14:05:00,
2013-03-28 10:10:00,34.9,31.4,30.18,WSW,248,3.8,4.6,87,0.00,-SN,,0.00,WeatherDisplay:10.37,2013-03-28 14:10:00,
2013-03-28 10:15:00,34.9,31.7,30.18,WSW,248,4.3,5.8,88,0.00,-SN,,0.00,WeatherDisplay:10.37,2013-03-28 14:15:00,
2013-03-28 10:20:00,34.7,30.9,30.18,SW,225,7.6,9.2,86,0.00,-SN,,0.00,WeatherDisplay:10.37,2013-03-28 14:20:00,
2013-03-28 10:25:00,34.9,31.4,30.18,NNW,338,5.2,9.2,87,0.00,-SN,,0.00,WeatherDisplay:10.37,2013-03-28 14:25:00,
2013-03-28 10:30:00,34.9,31.1,30.18,West,270,4.0,5.8,86,0.00,-SN,,0.00,WeatherDisplay:10.37,2013-03-28 14:30:00,
2013-03-28 10:35:00,35.2,31.1,30.18,SW,225,8.6,12.1,85,0.00,-SN,,0.00,WeatherDisplay:10.37,2013-03-28 14:35:00,
2013-03-28 10:40:00,35.4,31.3,30.18,NW,315,4.9,6.1,85,0.00,-SN,,0.00,WeatherDisplay:10.37,2013-03-28 14:40:00,
2013-03-28 10:45:00,35.8,31.7,30.18,WNW,292,7.2,9.2,85,0.00,-SN,,0.00,WeatherDisplay:10.37,2013-03-28 14:45:00,
2013-03-28 10:50:00,35.8,31.1,30.18,SW,225,5.1,6.1,83,0.00,-SN,,0.00,WeatherDisplay:10.37,2013-03-28 14:50:00,
2013-03-28 10:55:00,36.0,31.6,30.18,West,270,4.3,7.0,84,0.00,-SN,,0.00,WeatherDisplay:10.37,2013-03-28 14:55:00,
2013-03-28 11:00:00,36.3,31.6,30.18,WSW,248,5.0,8.1,83,0.00,-SN,,0.00,WeatherDisplay:10.37,2013-03-28 15:00:00,
2013-03-28 11:05:00,36.7,32.0,30.18,West,270,3.9,8.7,83,0.00,OVC,,0.00,WeatherDisplay:10.37,2013-03-28 15:05:00,
2013-03-28 11:10:00,36.7,31.7,30.18,West,270,6.4,9.2,82,0.00,OVC,,0.00,WeatherDisplay:10.37,2013-03-28 15:10:00,
2013-03-28 11:15:00,36.9,31.9,30.19,SW,225,5.0,7.0,82,0.00,OVC,,0.00,WeatherDisplay:10.37,2013-03-28 15:15:00,
2013-03-28 11:20:00,37.4,32.1,30.19,WNW,292,4.1,5.8,81,0.00,OVC,,0.00,WeatherDisplay:10.37,2013-03-28 15:20:00,
2013-03-28 11:25:00,37.4,31.2,30.19,SW,225,7.1,8.1,78,0.00,OVC,,0.00,WeatherDisplay:10.37,2013-03-28 15:25:00,
2013-03-28 11:30:00,37.2,30.7,30.19,SW,225,7.3,9.2,77,0.00,OVC,,0.00,WeatherDisplay:10.37,2013-03-28 15:30:00,
2013-03-28 11:35:00,37.4,30.5,30.19,WNW,292,7.5,12.1,76,0.00,OVC,,0.00,WeatherDisplay:10.37,2013-03-28 15:35:00,
2013-03-28 11:40:00,37.6,30.4,30.19,West,270,7.3,8.1,75,0.00,OVC,,0.00,WeatherDisplay:10.37,2013-03-28 15:40:00,
2013-03-28 11:45:00,37.9,30.7,30.19,West,270,5.2,7.0,75,0.00,OVC,,0.00,WeatherDisplay:10.37,2013-03-28 15:45:00,
2013-03-28 11:50:00,38.1,30.9,30.19,NNW,338,4.8,6.1,75,0.00,OVC,,0.00,WeatherDisplay:10.37,2013-03-28 15:50:00,
2013-03-28 11:55:00,38.7,31.1,30.19,West,270,5.0,10.4,74,0.00,OVC,,0.00,WeatherDisplay:10.37,2013-03-28 15:55:00,
2013-03-28 12:00:00,39.7,31.4,30.19,WSW,248,2.8,3.6,72,0.00,OVC,,0.00,WeatherDisplay:10.37,2013-03-28 16:00:00,
2013-03-28 12:05:00,40.1,31.4,30.19,WNW,292,6.0,6.1,71,0.00,-SN,,0.00,WeatherDisplay:10.37,2013-03-28 16:05:00,
2013-03-28 12:10:00,40.1,30.7,30.19,WSW,248,5.7,10.4,69,0.00,-SN,,0.00,WeatherDisplay:10.37,2013-03-28 16:10:00,
2013-03-28 12:15:00,39.9,30.2,30.18,WNW,292,9.7,16.3,68,0.00,-SN,,0.00,WeatherDisplay:10.37,2013-03-28 16:15:00,
2013-03-28 12:20:00,40.3,30.6,30.18,NW,315,5.0,5.8,68,0.00,-SN,,0.00,WeatherDisplay:10.37,2013-03-28 16:20:00,
2013-03-28 12:25:00,40.5,30.8,30.18,WNW,292,7.2,10.4,68,0.00,-SN,,0.00,WeatherDisplay:10.37,2013-03-28 16:25:00,
2013-03-28 12:30:00,40.3,30.2,30.19,WSW,248,8.8,11.5,67,0.00,-SN,,0.00,WeatherDisplay:10.37,2013-03-28 16:30:00,
2013-03-28 12:35:00,40.3,30.2,30.19,West,270,6.9,9.2,67,0.00,-SN,,0.00,WeatherDisplay:10.37,2013-03-28 16:35:00,
2013-03-28 12:40:00,39.7,30.0,30.18,WSW,248,4.2,8.1,68,0.00,-SN,,0.00,WeatherDisplay:10.37,2013-03-28 16:40:00,
2013-03-28 12:45:00,39.7,30.4,30.18,SW,225,4.5,6.1,69,0.00,-SN,,0.00,WeatherDisplay:10.37,2013-03-28 16:45:00,
2013-03-28 12:50:00,40.1,30.4,30.18,West,270,3.3,5.8,68,0.00,-SN,,0.00,WeatherDisplay:10.37,2013-03-28 16:50:00,
2013-03-28 12:55:00,40.5,30.0,30.18,SW,225,5.6,8.1,66,0.00,-SN,,0.00,WeatherDisplay:10.37,2013-03-28 16:55:00,
2013-03-28 13:00:00,40.6,30.5,30.18,SW,225,4.7,6.1,67,0.00,-SN,,0.00,WeatherDisplay:10.37,2013-03-28 17:00:00,
2013-03-28 13:05:00,40.5,29.7,30.18,West,270,5.0,6.1,65,0.00,OVC,,0.00,WeatherDisplay:10.37,2013-03-28 17:05:00,
2013-03-28 13:10:00,40.3,29.1,30.18,West,270,4.8,8.1,64,0.00,OVC,,0.00,WeatherDisplay:10.37,2013-03-28 17:10:00,
2013-03-28 13:15:00,40.5,28.9,30.18,NE,45,6.8,9.2,63,0.00,OVC,,0.00,WeatherDisplay:10.37,2013-03-28 17:15:00,
2013-03-28 13:20:00,40.3,29.1,30.18,West,270,5.4,10.4,64,0.00,OVC,,0.00,WeatherDisplay:10.37,2013-03-28 17:20:00,
2013-03-28 13:25:00,40.5,29.7,30.18,West,270,4.7,6.1,65,0.00,OVC,,0.00,WeatherDisplay:10.37,2013-03-28 17:25:00,
2013-03-28 13:30:00,41.0,29.4,30.18,WNW,292,2.8,5.8,63,0.00,OVC,,0.00,WeatherDisplay:10.37,2013-03-28 17:30:00,
2013-03-28 13:35:00,40.8,29.2,30.18,WNW,292,7.2,10.4,63,0.00,OVC,,0.00,WeatherDisplay:10.37,2013-03-28 17:35:00,
2013-03-28 13:40:00,41.2,29.5,30.18,WSW,248,5.9,11.5,63,0.00,OVC,,0.00,WeatherDisplay:10.37,2013-03-28 17:40:00,
2013-03-28 13:45:00,41.5,28.6,30.18,NW,315,7.6,11.5,60,0.00,OVC,,0.00,WeatherDisplay:10.37,2013-03-28 17:45:00,
2013-03-28 13:50:00,42.1,29.6,30.18,WNW,292,5.1,8.1,61,0.00,OVC,,0.00,WeatherDisplay:10.37,2013-03-28 17:50:00,
2013-03-28 13:55:00,42.8,29.9,30.18,North,360,4.4,5.8,60,0.00,OVC,,0.00,WeatherDisplay:10.37,2013-03-28 17:55:00,
2013-03-28 14:00:00,42.8,29.9,30.18,WNW,292,6.5,9.5,60,0.00,OVC,,0.00,WeatherDisplay:10.37,2013-03-28 18:00:00,
2013-03-28 14:05:00,42.8,30.7,30.17,NW,315,4.0,6.9,62,0.00,BKN,,0.00,WeatherDisplay:10.37,2013-03-28 18:05:00,
2013-03-28 14:10:00,43.0,29.6,30.17,West,270,5.9,9.2,59,0.00,BKN,,0.00,WeatherDisplay:10.37,2013-03-28 18:10:00,
2013-03-28 14:15:00,42.4,29.1,30.18,NW,315,5.3,15.0,59,0.00,BKN,,0.00,WeatherDisplay:10.37,2013-03-28 18:15:00,
2013-03-28 14:20:00,42.3,28.6,30.18,NE,45,6.9,12.7,58,0.00,BKN,,0.00,WeatherDisplay:10.37,2013-03-28 18:20:00,
2013-03-28 14:25:00,42.3,28.6,30.18,WNW,292,8.1,12.1,58,0.00,BKN,,0.00,WeatherDisplay:10.37,2013-03-28 18:25:00,
2013-03-28 14:30:00,42.4,28.7,30.18,WNW,292,4.9,9.2,58,0.00,BKN,,0.00,WeatherDisplay:10.37,2013-03-28 18:30:00,
2013-03-28 14:35:00,42.4,28.2,30.18,NNW,338,5.0,8.1,57,0.00,BKN,,0.00,WeatherDisplay:10.37,2013-03-28 18:35:00,
2013-03-28 14:40:00,42.3,28.6,30.18,WSW,248,6.4,10.4,58,0.00,BKN,,0.00,WeatherDisplay:10.37,2013-03-28 18:40:00,
2013-03-28 14:45:00,41.9,28.2,30.18,NNE,22,6.3,9.5,58,0.00,BKN,,0.00,WeatherDisplay:10.37,2013-03-28 18:45:00,
2013-03-28 14:50:00,41.9,28.2,30.17,SW,225,5.6,8.1,58,0.00,BKN,,0.00,WeatherDisplay:10.37,2013-03-28 18:50:00,
2013-03-28 14:55:00,42.1,28.4,30.17,WSW,248,6.1,6.1,58,0.00,BKN,,0.00,WeatherDisplay:10.37,2013-03-28 18:55:00,
2013-03-28 15:00:00,42.3,28.6,30.17,NE,45,6.2,7.0,58,0.00,BKN,,0.00,WeatherDisplay:10.37,2013-03-28 19:00:00,
2013-03-28 15:05:00,42.4,28.2,30.17,NE,45,7.3,12.1,57,0.00,BKN,,0.00,WeatherDisplay:10.37,2013-03-28 19:05:00,
2013-03-28 15:10:00,42.3,28.6,30.17,West,270,8.0,9.5,58,0.00,BKN,,0.00,WeatherDisplay:10.37,2013-03-28 19:10:00,
2013-03-28 15:15:00,42.8,28.6,30.17,NNW,338,7.3,11.5,57,0.00,BKN,,0.00,WeatherDisplay:10.37,2013-03-28 19:15:00,
2013-03-28 15:20:00,43.5,28.8,30.17,NW,315,4.2,9.2,56,0.00,BKN,,0.00,WeatherDisplay:10.37,2013-03-28 19:20:00,
2013-03-28 15:25:00,43.3,28.2,30.17,NW,315,5.2,9.2,55,0.00,BKN,,0.00,WeatherDisplay:10.37,2013-03-28 19:25:00,
2013-03-28 15:30:00,44.4,28.3,30.17,NE,45,10.6,13.8,53,0.00,BKN,,0.00,WeatherDisplay:10.37,2013-03-28 19:30:00,
2013-03-28 15:35:00,43.0,27.9,30.17,SW,225,8.4,11.5,55,0.00,OVC,,0.00,WeatherDisplay:10.37,2013-03-28 19:35:00,
2013-03-28 15:40:00,43.2,28.1,30.16,West,270,6.1,8.1,55,0.00,OVC,,0.00,WeatherDisplay:10.37,2013-03-28 19:40:00,
2013-03-28 15:45:00,43.5,28.4,30.16,SW,225,6.9,9.5,55,0.00,OVC,,0.00,WeatherDisplay:10.37,2013-03-28 19:45:00,
2013-03-28 15:50:00,42.6,28.0,30.17,NW,315,7.6,11.2,56,0.00,OVC,,0.00,WeatherDisplay:10.37,2013-03-28 19:50:00,
2013-03-28 15:55:00,42.8,28.2,30.17,NNE,22,10.9,12.1,56,0.00,OVC,,0.00,WeatherDisplay:10.37,2013-03-28 19:55:00,
2013-03-28 16:00:00,43.3,29.1,30.17,ENE,68,6.6,9.2,57,0.00,OVC,,0.00,WeatherDisplay:10.37,2013-03-28 20:00:00,
2013-03-28 16:05:00,43.9,28.8,30.17,WNW,292,5.7,6.1,55,0.00,OVC,,0.00,WeatherDisplay:10.37,2013-03-28 20:05:00,
2013-03-28 16:10:00,44.1,28.5,30.17,WNW,292,7.0,9.2,54,0.00,OVC,,0.00,WeatherDisplay:10.37,2013-03-28 20:10:00,
2013-03-28 16:15:00,43.5,28.4,30.17,West,270,5.4,8.1,55,0.00,OVC,,0.00,WeatherDisplay:10.37,2013-03-28 20:15:00,
2013-03-28 16:20:00,43.3,28.2,30.17,NNW,338,7.3,9.2,55,0.00,OVC,,0.00,WeatherDisplay:10.37,2013-03-28 20:20:00,
2013-03-28 16:25:00,42.8,28.2,30.17,WNW,292,4.3,10.4,56,0.00,OVC,,0.00,WeatherDisplay:10.37,2013-03-28 20:25:00,
2013-03-28 16:30:00,42.8,27.7,30.17,WNW,292,8.0,11.5,55,0.00,OVC,,0.00,WeatherDisplay:10.37,2013-03-28 20:30:00,
2013-03-28 16:35:00,42.3,28.1,30.17,WNW,292,6.0,10.4,57,0.00,OVC,,0.00,WeatherDisplay:10.37,2013-03-28 20:35:00,
2013-03-28 16:40:00,42.1,28.4,30.17,NW,315,9.3,12.1,58,0.00,OVC,,0.00,WeatherDisplay:10.37,2013-03-28 20:40:00,
2013-03-28 16:45:00,41.7,28.0,30.17,West,270,4.7,8.1,58,0.00,OVC,,0.00,WeatherDisplay:10.37,2013-03-28 20:45:00,
2013-03-28 16:50:00,41.9,28.2,30.18,WSW,248,5.8,7.0,58,0.00,OVC,,0.00,WeatherDisplay:10.37,2013-03-28 20:50:00,
2013-03-28 16:55:00,42.1,28.8,30.18,NE,45,7.7,11.5,59,0.00,OVC,,0.00,WeatherDisplay:10.37,2013-03-28 20:55:00,
2013-03-28 17:00:00,42.1,28.8,30.18,West,270,6.6,15.0,59,0.00,OVC,,0.00,WeatherDisplay:10.37,2013-03-28 21:00:00,
2013-03-28 17:05:00,42.3,29.0,30.18,WNW,292,6.5,9.2,59,0.00,OVC,,0.00,WeatherDisplay:10.37,2013-03-28 21:05:00,
2013-03-28 17:10:00,42.3,29.0,30.18,NW,315,8.3,15.4,59,0.00,OVC,,0.00,WeatherDisplay:10.37,2013-03-28 21:10:00,
2013-03-28 17:15:00,42.3,29.0,30.18,WNW,292,6.0,9.2,59,0.00,OVC,,0.00,WeatherDisplay:10.37,2013-03-28 21:15:00,
2013-03-28 17:20:00,42.8,29.5,30.18,NNW,338,5.5,7.0,59,0.00,OVC,,0.00,WeatherDisplay:10.37,2013-03-28 21:20:00,
2013-03-28 17:25:00,42.6,29.3,30.18,WNW,292,5.4,8.1,59,0.00,OVC,,0.00,WeatherDisplay:10.37,2013-03-28 21:25:00,
2013-03-28 17:30:00,42.4,29.5,30.18,NW,315,5.5,8.1,60,0.00,OVC,,0.00,WeatherDisplay:10.37,2013-03-28 21:30:00,
2013-03-28 17:35:00,42.3,29.8,30.18,NNW,338,6.1,9.5,61,0.00,OVC,,0.00,WeatherDisplay:10.37,2013-03-28 21:35:00,
2013-03-28 17:40:00,41.9,29.4,30.19,WNW,292,6.2,8.1,61,0.00,OVC,,0.00,WeatherDisplay:10.37,2013-03-28 21:40:00,
2013-03-28 17:45:00,41.9,29.4,30.19,West,270,4.3,5.8,61,0.00,OVC,,0.00,WeatherDisplay:10.37,2013-03-28 21:45:00,
2013-03-28 17:50:00,41.5,28.6,30.19,West,270,7.3,11.5,60,0.00,OVC,,0.00,WeatherDisplay:10.37,2013-03-28 21:50:00,
2013-03-28 17:55:00,41.4,28.9,30.19,WNW,292,8.7,10.4,61,0.00,OVC,,0.00,WeatherDisplay:10.37,2013-03-28 21:55:00,
2013-03-28 18:00:00,41.0,29.0,30.19,NW,315,4.6,5.8,62,0.00,OVC,,0.00,WeatherDisplay:10.37,2013-03-28 22:00:00,
2013-03-28 18:05:00,41.0,29.4,30.19,West,270,4.4,8.1,63,0.00,OVC,,0.00,WeatherDisplay:10.37,2013-03-28 22:05:00,
2013-03-28 18:10:00,41.0,29.4,30.19,NW,315,4.8,7.8,63,0.00,OVC,,0.00,WeatherDisplay:10.37,2013-03-28 22:10:00,
2013-03-28 18:15:00,40.8,29.2,30.19,WSW,248,3.5,6.9,63,0.00,OVC,,0.00,WeatherDisplay:10.37,2013-03-28 22:15:00,
2013-03-28 18:20:00,40.8,29.6,30.19,NW,315,2.6,4.6,64,0.00,OVC,,0.00,WeatherDisplay:10.37,2013-03-28 22:20:00,
2013-03-28 18:25:00,40.6,29.0,30.19,NW,315,6.1,9.2,63,0.00,OVC,,0.00,WeatherDisplay:10.37,2013-03-28 22:25:00,
2013-03-28 18:30:00,40.5,29.3,30.20,West,270,4.3,7.0,64,0.00,OVC,,0.00,WeatherDisplay:10.37,2013-03-28 22:30:00,
2013-03-28 18:35:00,40.5,29.7,30.20,WNW,292,5.6,6.1,65,0.00,OVC,,0.00,WeatherDisplay:10.37,2013-03-28 22:35:00,
2013-03-28 18:40:00,40.5,29.7,30.20,NNW,338,3.1,4.6,65,0.00,OVC,,0.00,WeatherDisplay:10.37,2013-03-28 22:40:00,
2013-03-28 18:45:00,40.5,29.7,30.20,NNE,22,3.1,4.6,65,0.00,OVC,,0.00,WeatherDisplay:10.37,2013-03-28 22:45:00,
2013-03-28 18:50:00,40.3,29.5,30.20,NNE,22,3.9,5.8,65,0.00,OVC,,0.00,WeatherDisplay:10.37,2013-03-28 22:50:00,
2013-03-28 18:55:00,40.1,29.6,30.20,NNW,338,2.7,3.5,66,0.00,OVC,,0.00,WeatherDisplay:10.37,2013-03-28 22:55:00,
2013-03-28 19:00:00,40.1,29.6,30.20,NNW,338,3.5,8.1,66,0.00,OVC,,0.00,WeatherDisplay:10.37,2013-03-28 23:00:00,
2013-03-28 19:05:00,39.9,29.8,30.21,NW,315,2.4,4.6,67,0.00,BKN,,0.00,WeatherDisplay:10.37,2013-03-28 23:05:00,
2013-03-28 19:10:00,39.6,30.3,30.21,WNW,292,7.2,9.2,69,0.00,BKN,,0.00,WeatherDisplay:10.37,2013-03-28 23:10:00,
2013-03-28 19:15:00,39.4,30.4,30.21,SW,225,4.1,11.5,70,0.00,BKN,,0.00,WeatherDisplay:10.37,2013-03-28 23:15:00,
2013-03-28 19:20:00,39.2,30.6,30.21,WNW,292,4.1,6.9,71,0.00,BKN,,0.00,WeatherDisplay:10.37,2013-03-28 23:20:00,
2013-03-28 19:25:00,39.2,30.6,30.21,West,270,3.5,4.6,71,0.00,BKN,,0.00,WeatherDisplay:10.37,2013-03-28 23:25:00,
2013-03-28 19:30:00,39.0,30.4,30.21,West,270,2.7,5.8,71,0.00,BKN,,0.00,WeatherDisplay:10.37,2013-03-28 23:30:00,
2013-03-28 19:35:00,39.0,30.4,30.21,West,270,2.4,4.6,71,0.00,BKN,,0.00,WeatherDisplay:10.37,2013-03-28 23:35:00,
2013-03-28 19:40:00,39.0,30.0,30.21,West,270,3.0,3.6,70,0.00,BKN,,0.00,WeatherDisplay:10.37,2013-03-28 23:40:00,
2013-03-28 19:45:00,38.8,30.2,30.21,WNW,292,0.0,0.0,71,0.00,BKN,,0.00,WeatherDisplay:10.37,2013-03-28 23:45:00,
2013-03-28 19:50:00,38.7,30.1,30.21,WNW,292,0.0,0.0,71,0.00,BKN,,0.00,WeatherDisplay:10.37,2013-03-28 23:50:00,
2013-03-28 19:55:00,38.5,29.9,30.21,WNW,292,0.0,0.0,71,0.00,BKN,,0.00,WeatherDisplay:10.37,2013-03-28 23:55:00,
2013-03-28 20:00:00,38.1,30.2,30.21,WNW,292,0.0,0.0,73,0.00,BKN,,0.00,WeatherDisplay:10.37,2013-03-29 00:00:00,
2013-03-28 20:05:00,37.8,30.3,30.22,WNW,292,0.0,0.0,74,0.00,BKN,,0.00,WeatherDisplay:10.37,2013-03-29 00:05:00,
2013-03-28 20:10:00,37.6,30.1,30.22,WNW,292,0.0,0.0,74,0.00,BKN,,0.00,WeatherDisplay:10.37,2013-03-29 00:10:00,
2013-03-28 20:15:00,37.6,30.7,30.22,WNW,292,0.0,0.0,76,0.00,BKN,,0.00,WeatherDisplay:10.37,2013-03-29 00:15:00,
2013-03-28 20:20:00,37.6,30.4,30.22,WNW,292,0.0,0.0,75,0.00,BKN,,0.00,WeatherDisplay:10.37,2013-03-29 00:20:00,
2013-03-28 20:25:00,37.4,30.5,30.22,WNW,292,0.0,0.0,76,0.00,BKN,,0.00,WeatherDisplay:10.37,2013-03-29 00:25:00,
2013-03-28 20:30:00,37.2,30.3,30.22,WNW,292,0.0,0.0,76,0.00,BKN,,0.00,WeatherDisplay:10.37,2013-03-29 00:30:00,
2013-03-28 20:35:00,37.0,30.1,30.22,WNW,292,0.0,0.0,76,0.00,BKN,,0.00,WeatherDisplay:10.37,2013-03-29 00:35:00,
2013-03-28 20:40:00,37.0,30.5,30.22,WNW,292,0.0,0.0,77,0.00,BKN,,0.00,WeatherDisplay:10.37,2013-03-29 00:40:00,
2013-03-28 20:45:00,37.0,30.5,30.22,WNW,292,0.0,0.0,77,0.00,BKN,,0.00,WeatherDisplay:10.37,2013-03-29 00:45:00,
2013-03-28 20:50:00,36.7,30.8,30.22,WNW,292,0.0,0.0,79,0.00,BKN,,0.00,WeatherDisplay:10.37,2013-03-29 00:50:00,
2013-03-28 20:55:00,36.7,30.8,30.22,WNW,292,0.0,0.0,79,0.00,BKN,,0.00,WeatherDisplay:10.37,2013-03-29 00:55:00,
2013-03-28 21:00:00,36.7,30.8,30.22,WNW,292,0.0,0.0,79,0.00,BKN,,0.00,WeatherDisplay:10.37,2013-03-29 01:00:00,
2013-03-28 21:05:00,36.5,30.6,30.23,WNW,292,0.0,0.0,79,0.00,BKN,,0.00,WeatherDisplay:10.37,2013-03-29 01:05:00,
2013-03-28 21:10:00,36.5,30.6,30.23,WNW,292,0.0,0.0,79,0.00,BKN,,0.00,WeatherDisplay:10.37,2013-03-29 01:10:00,
2013-03-28 21:15:00,36.5,30.6,30.23,WNW,292,0.0,0.0,79,0.00,BKN,,0.00,WeatherDisplay:10.37,2013-03-29 01:15:00,
2013-03-28 21:20:00,36.3,30.4,30.23,WNW,292,0.0,0.0,79,0.00,BKN,,0.00,WeatherDisplay:10.37,2013-03-29 01:20:00,
2013-03-28 21:25:00,36.3,30.7,30.23,WNW,292,0.0,0.0,80,0.00,BKN,,0.00,WeatherDisplay:10.37,2013-03-29 01:25:00,
2013-03-28 21:30:00,36.1,30.5,30.23,WNW,292,0.0,0.0,80,0.00,BKN,,0.00,WeatherDisplay:10.37,2013-03-29 01:30:00,
2013-03-28 21:35:00,36.0,31.0,30.23,WNW,292,0.0,0.0,82,0.00,OVC,,0.00,WeatherDisplay:10.37,2013-03-29 01:35:00,
2013-03-28 21:40:00,36.0,31.3,30.23,WNW,292,0.0,0.0,83,0.00,OVC,,0.00,WeatherDisplay:10.37,2013-03-29 01:40:00,
2013-03-28 21:45:00,35.8,31.1,30.23,WNW,292,0.0,0.0,83,0.00,OVC,,0.00,WeatherDisplay:10.37,2013-03-29 01:45:00,
2013-03-28 21:50:00,35.8,30.8,30.23,WNW,292,0.0,0.0,82,0.00,OVC,,0.00,WeatherDisplay:10.37,2013-03-29 01:50:00,
2013-03-28 21:55:00,35.8,31.1,30.23,WNW,292,0.0,0.0,83,0.00,OVC,,0.00,WeatherDisplay:10.37,2013-03-29 01:55:00,
2013-03-28 22:00:00,35.6,31.2,30.23,WNW,292,0.0,0.0,84,0.00,OVC,,0.00,WeatherDisplay:10.37,2013-03-29 02:00:00,
2013-03-28 22:05:00,35.6,31.2,30.23,WNW,292,0.0,0.0,84,0.00,OVC,,0.00,WeatherDisplay:10.37,2013-03-29 02:05:00,
2013-03-28 22:10:00,35.6,31.2,30.23,WNW,292,0.0,0.0,84,0.00,OVC,,0.00,WeatherDisplay:10.37,2013-03-29 02:10:00,
2013-03-28 22:15:00,35.6,30.9,30.23,WNW,292,0.0,0.0,83,0.00,OVC,,0.00,WeatherDisplay:10.37,2013-03-29 02:15:00,
2013-03-28 22:20:00,35.6,30.9,30.23,WNW,292,0.0,0.0,83,0.00,OVC,,0.00,WeatherDisplay:10.37,2013-03-29 02:20:00,
2013-03-28 22:25:00,35.4,31.0,30.23,WNW,292,0.0,0.0,84,0.00,OVC,,0.00,WeatherDisplay:10.37,2013-03-29 02:25:00,
2013-03-28 22:30:00,35.4,31.0,30.23,WNW,292,0.0,0.0,84,0.00,OVC,,0.00,WeatherDisplay:10.37,2013-03-29 02:30:00,
2013-03-28 22:35:00,35.4,31.0,30.23,WNW,292,0.0,0.0,84,0.00,OVC,,0.00,WeatherDisplay:10.37,2013-03-29 02:35:00,
2013-03-28 22:40:00,35.4,31.0,30.24,WNW,292,0.0,0.0,84,0.00,OVC,,0.00,WeatherDisplay:10.37,2013-03-29 02:40:00,
2013-03-28 22:45:00,35.2,30.9,30.24,WNW,292,0.0,0.0,84,0.00,OVC,,0.00,WeatherDisplay:10.37,2013-03-29 02:45:00,
2013-03-28 22:50:00,35.2,31.4,30.24,WNW,292,0.0,0.0,86,0.00,OVC,,0.00,WeatherDisplay:10.37,2013-03-29 02:50:00,
2013-03-28 22:55:00,35.2,31.4,30.24,WNW,292,0.0,0.0,86,0.00,OVC,,0.00,WeatherDisplay:10.37,2013-03-29 02:55:00,
2013-03-28 23:00:00,35.1,31.3,30.24,WNW,292,0.0,0.0,86,0.00,OVC,,0.00,WeatherDisplay:10.37,2013-03-29 03:00:00,
2013-03-28 23:05:00,35.1,31.6,30.24,WNW,292,0.0,0.0,87,0.00,OVC,,0.00,WeatherDisplay:10.37,2013-03-29 03:05:00,
2013-03-28 23:10:00,35.1,31.0,30.24,WNW,292,0.0,0.0,85,0.00,OVC,,0.00,WeatherDisplay:10.37,2013-03-29 03:10:00,
2013-03-28 23:15:00,34.9,31.1,30.24,WNW,292,0.0,0.0,86,0.00,OVC,,0.00,WeatherDisplay:10.37,2013-03-29 03:15:00,
2013-03-28 23:20:00,34.9,30.6,30.24,WNW,292,0.0,0.0,84,0.00,OVC,,0.00,WeatherDisplay:10.37,2013-03-29 03:20:00,
2013-03-28 23:25:00,34.9,30.8,30.23,WNW,292,0.0,0.0,85,0.00,OVC,,0.00,WeatherDisplay:10.37,2013-03-29 03:25:00,
2013-03-28 23:30:00,34.7,30.7,30.23,WNW,292,0.0,0.0,85,0.00,OVC,,0.00,WeatherDisplay:10.37,2013-03-29 03:30:00,
2013-03-28 23:35:00,34.7,30.7,30.23,WNW,292,0.0,0.0,85,0.00,OVC,,0.00,WeatherDisplay:10.37,2013-03-29 03:35:00,
2013-03-28 23:40:00,34.7,30.7,30.23,WNW,292,0.0,0.0,85,0.00,OVC,,0.00,WeatherDisplay:10.37,2013-03-29 03:40:00,
2013-03-28 23:45:00,34.7,30.7,30.23,WNW,292,0.0,0.0,85,0.00,OVC,,0.00,WeatherDisplay:10.37,2013-03-29 03:45:00,
2013-03-28 23:50:00,34.7,30.7,30.23,WNW,292,0.0,0.0,85,0.00,OVC,,0.00,WeatherDisplay:10.37,2013-03-29 03:50:00,
2013-03-28 23:55:00,34.7,31.2,30.23,WNW,292,0.0,0.0,87,0.00,OVC,,0.00,WeatherDisplay:10.37,2013-03-29 03:55:00,